Time,TemperatureF,DewpointF,PressureIn,WindDirection,WindDirectionDegrees,WindSpeedMPH,WindSpeedGustMPH,Humidity,HourlyPrecipIn,Conditions,Clouds,dailyrainin,SoftwareType,DateUTC
2013-02-27 00:00:00,45.3,5.5,-100.00,SSW,196,7.0,7.0,19,0.00,,,0.00,meteohub,2013-02-27 08:00:00,
2013-02-27 00:05:00,45.7,4.6,-100.00,SSW,196,7.0,7.0,18,0.00,,,0.00,meteohub,2013-02-27 08:05:00,
2013-02-27 00:10:00,45.7,3.4,-100.00,SSW,196,5.0,7.0,17,0.00,,,0.00,meteohub,2013-02-27 08:10:00,
2013-02-27 00:15:00,45.9,4.6,-100.00,SSW,196,5.0,7.0,18,0.00,,,0.00,meteohub,2013-02-27 08:15:00,
2013-02-27 00:20:00,45.9,4.6,-100.00,South,187,7.0,7.0,18,0.00,,,0.00,meteohub,2013-02-27 08:20:00,
2013-02-27 00:25:00,45.9,4.6,-100.00,South,184,4.0,8.0,18,0.00,,,0.00,meteohub,2013-02-27 08:25:00,
2013-02-27 00:30:00,45.7,3.4,-100.00,South,184,4.0,8.0,17,0.00,,,0.00,meteohub,2013-02-27 08:30:00,
2013-02-27 00:35:00,45.7,3.4,-100.00,South,186,6.0,7.0,17,0.00,,,0.00,meteohub,2013-02-27 08:35:00,
2013-02-27 00:40:00,45.7,3.4,-100.00,South,186,6.0,7.0,17,0.00,,,0.00,meteohub,2013-02-27 08:40:00,
2013-02-27 00:45:00,45.7,4.6,-100.00,South,186,5.0,7.0,18,0.00,,,0.00,meteohub,2013-02-27 08:45:00,
2013-02-27 00:50:00,45.7,3.4,-100.00,South,186,2.0,7.0,17,0.00,,,0.00,meteohub,2013-02-27 08:50:00,
2013-02-27 00:55:00,45.3,3.0,-100.00,South,186,0.0,7.0,17,0.00,,,0.00,meteohub,2013-02-27 08:55:00,
2013-02-27 01:00:00,45.1,4.1,-100.00,South,186,0.0,6.0,18,0.00,,,0.00,meteohub,2013-02-27 09:00:00,
2013-02-27 01:05:00,44.2,4.6,-100.00,South,186,2.0,3.0,19,0.00,,,0.00,meteohub,2013-02-27 09:05:00,
2013-02-27 01:10:00,43.0,3.6,-100.00,SSW,194,2.0,3.0,19,0.00,,,0.00,meteohub,2013-02-27 09:10:00,
2013-02-27 01:15:00,42.4,4.1,-100.00,NW,323,5.0,5.0,20,0.00,,,0.00,meteohub,2013-02-27 09:15:00,
2013-02-27 01:20:00,41.7,3.6,-100.00,NNW,341,5.0,6.0,20,0.00,,,0.00,meteohub,2013-02-27 09:20:00,
2013-02-27 01:25:00,41.2,4.1,-100.00,NNW,341,4.0,6.0,21,0.00,,,0.00,meteohub,2013-02-27 09:25:00,
2013-02-27 01:30:00,40.8,4.8,-100.00,NNW,341,3.0,6.0,22,0.00,,,0.00,meteohub,2013-02-27 09:30:00,
2013-02-27 01:35:00,40.6,4.8,-100.00,NNW,341,0.0,6.0,22,0.00,,,0.00,meteohub,2013-02-27 09:35:00,
2013-02-27 01:40:00,40.6,3.7,-100.00,NNW,341,0.0,5.0,21,0.00,,,0.00,meteohub,2013-02-27 09:40:00,
2013-02-27 01:45:00,40.6,4.8,-100.00,NNW,341,0.0,3.0,22,0.00,,,0.00,meteohub,2013-02-27 09:45:00,
2013-02-27 01:50:00,40.6,4.8,-100.00,NNW,341,0.0,2.0,22,0.00,,,0.00,meteohub,2013-02-27 09:50:00,
2013-02-27 01:55:00,40.5,5.5,-100.00,NNW,341,0.0,1.0,23,0.00,,,0.00,meteohub,2013-02-27 09:55:00,
2013-02-27 02:00:00,40.3,5.4,-100.00,NNW,341,1.0,1.0,23,0.00,,,0.00,meteohub,2013-02-27 10:00:00,
2013-02-27 02:05:00,39.9,4.1,-100.00,NNW,341,1.0,1.0,22,0.00,,,0.00,meteohub,2013-02-27 10:05:00,
2013-02-27 02:10:00,39.7,3.9,-100.00,NNW,341,1.0,1.0,22,0.00,,,0.00,meteohub,2013-02-27 10:10:00,
2013-02-27 02:15:00,39.4,3.7,-100.00,NNW,338,3.0,3.0,22,0.00,,,0.00,meteohub,2013-02-27 10:15:00,
2013-02-27 02:20:00,39.0,3.4,-100.00,WNW,298,5.0,6.0,22,0.00,,,0.00,meteohub,2013-02-27 10:20:00,
2013-02-27 02:25:00,38.8,3.2,-100.00,WSW,237,6.0,6.0,22,0.00,,,0.00,meteohub,2013-02-27 10:25:00,
2013-02-27 02:30:00,38.8,5.2,-100.00,SSW,204,4.0,7.0,24,0.00,,,0.00,meteohub,2013-02-27 10:30:00,
2013-02-27 02:35:00,38.7,4.1,-100.00,SW,221,6.0,7.0,23,0.00,,,0.00,meteohub,2013-02-27 10:35:00,
2013-02-27 02:40:00,38.7,5.9,-100.00,SSW,209,4.0,8.0,25,0.00,,,0.00,meteohub,2013-02-27 10:40:00,
2013-02-27 02:45:00,38.8,4.1,-100.00,SSW,213,6.0,8.0,23,0.00,,,0.00,meteohub,2013-02-27 10:45:00,
2013-02-27 02:50:00,38.8,5.2,-100.00,SW,221,5.0,8.0,24,0.00,,,0.00,meteohub,2013-02-27 10:50:00,
2013-02-27 02:55:00,38.8,5.2,-100.00,SW,215,4.0,9.0,24,0.00,,,0.00,meteohub,2013-02-27 10:55:00,
2013-02-27 03:00:00,39.0,5.2,-100.00,SSW,210,5.0,9.0,24,0.00,,,0.00,meteohub,2013-02-27 11:00:00,
2013-02-27 03:05:00,39.2,5.4,-100.00,SSW,205,7.0,8.0,24,0.00,,,0.00,meteohub,2013-02-27 11:05:00,
2013-02-27 03:10:00,39.4,4.6,-100.00,SSW,207,4.0,9.0,23,0.00,,,0.00,meteohub,2013-02-27 11:10:00,
2013-02-27 03:15:00,39.4,4.6,-100.00,SW,222,5.0,9.0,23,0.00,,,0.00,meteohub,2013-02-27 11:15:00,
2013-02-27 03:20:00,39.4,5.5,-100.00,WSW,238,8.0,9.0,24,0.00,,,0.00,meteohub,2013-02-27 11:20:00,
2013-02-27 03:25:00,39.4,4.6,-100.00,SW,221,6.0,9.0,23,0.00,,,0.00,meteohub,2013-02-27 11:25:00,
2013-02-27 03:30:00,39.6,6.6,-100.00,SW,214,6.0,9.0,25,0.00,,,0.00,meteohub,2013-02-27 11:30:00,
2013-02-27 03:35:00,39.7,5.9,-100.00,SW,234,3.0,9.0,24,0.00,,,0.00,meteohub,2013-02-27 11:35:00,
2013-02-27 03:40:00,39.9,5.2,-100.00,WSW,241,5.0,9.0,23,0.00,,,0.00,meteohub,2013-02-27 11:40:00,
2013-02-27 03:45:00,40.1,5.2,-100.00,WSW,250,4.0,7.0,23,0.00,,,0.00,meteohub,2013-02-27 11:45:00,
2013-02-27 03:50:00,40.5,4.6,-100.00,WSW,247,4.0,5.0,22,0.00,,,0.00,meteohub,2013-02-27 11:50:00,
2013-02-27 03:55:00,40.3,6.3,-100.00,SW,215,6.0,6.0,24,0.00,,,0.00,meteohub,2013-02-27 11:55:00,
2013-02-27 04:00:00,40.6,4.8,-100.00,SW,225,5.0,7.0,22,0.00,,,0.00,meteohub,2013-02-27 12:00:00,
2013-02-27 04:05:00,40.5,4.6,-100.00,SW,231,5.0,7.0,22,0.00,,,0.00,meteohub,2013-02-27 12:05:00,
2013-02-27 04:10:00,40.1,4.3,-100.00,WSW,239,4.0,7.0,22,0.00,,,0.00,meteohub,2013-02-27 12:10:00,
2013-02-27 04:15:00,39.9,4.1,-100.00,WSW,242,5.0,6.0,22,0.00,,,0.00,meteohub,2013-02-27 12:15:00,
2013-02-27 04:20:00,39.9,4.1,-100.00,WSW,242,3.0,6.0,22,0.00,,,0.00,meteohub,2013-02-27 12:20:00,
2013-02-27 04:26:00,40.3,5.4,-100.00,WSW,242,2.0,6.0,23,0.00,,,0.00,meteohub,2013-02-27 12:26:00,
2013-02-27 04:31:00,39.9,3.2,-100.00,WSW,242,1.0,6.0,21,0.00,,,0.00,meteohub,2013-02-27 12:31:00,
2013-02-27 04:36:00,39.7,3.9,-100.00,WSW,242,0.0,4.0,22,0.00,,,0.00,meteohub,2013-02-27 12:36:00,
2013-02-27 04:41:00,39.6,3.9,-100.00,WSW,242,0.0,3.0,22,0.00,,,0.00,meteohub,2013-02-27 12:41:00,
2013-02-27 04:46:00,39.2,3.6,-100.00,WSW,242,2.0,2.0,22,0.00,,,0.00,meteohub,2013-02-27 12:46:00,
2013-02-27 04:51:00,39.0,3.4,-100.00,WSW,242,0.0,2.0,22,0.00,,,0.00,meteohub,2013-02-27 12:51:00,
2013-02-27 04:56:00,39.0,4.3,-100.00,WSW,242,0.0,2.0,23,0.00,,,0.00,meteohub,2013-02-27 12:56:00,
2013-02-27 05:01:00,38.7,4.1,-100.00,WSW,242,2.0,2.0,23,0.00,,,0.00,meteohub,2013-02-27 13:01:00,
2013-02-27 05:06:00,38.5,3.9,-100.00,WSW,242,1.0,2.0,23,0.00,,,0.00,meteohub,2013-02-27 13:06:00,
2013-02-27 05:11:00,38.7,4.1,-100.00,WSW,242,2.0,3.0,23,0.00,,,0.00,meteohub,2013-02-27 13:11:00,
2013-02-27 05:16:00,38.8,5.2,-100.00,WSW,242,2.0,3.0,24,0.00,,,0.00,meteohub,2013-02-27 13:16:00,
2013-02-27 05:21:00,38.8,5.2,-100.00,WSW,242,3.0,3.0,24,0.00,,,0.00,meteohub,2013-02-27 13:21:00,
2013-02-27 05:26:00,38.7,5.0,-100.00,WSW,242,1.0,4.0,24,0.00,,,0.00,meteohub,2013-02-27 13:26:00,
2013-02-27 05:31:00,38.7,5.0,-100.00,WSW,242,3.0,4.0,24,0.00,,,0.00,meteohub,2013-02-27 13:31:00,
2013-02-27 05:36:00,38.5,4.8,-100.00,WSW,239,2.0,4.0,24,0.00,,,0.00,meteohub,2013-02-27 13:36:00,
2013-02-27 05:41:00,38.5,5.7,-100.00,WSW,238,1.0,4.0,25,0.00,,,0.00,meteohub,2013-02-27 13:41:00,
2013-02-27 05:46:00,38.3,5.5,-100.00,SW,229,3.0,4.0,25,0.00,,,0.00,meteohub,2013-02-27 13:46:00,
2013-02-27 05:51:00,37.9,5.2,-100.00,SW,223,4.0,6.0,25,0.00,,,0.00,meteohub,2013-02-27 13:51:00,
2013-02-27 05:56:00,37.8,5.9,-100.00,SW,218,5.0,6.0,26,0.00,,,0.00,meteohub,2013-02-27 13:56:00,
2013-02-27 06:01:00,37.8,5.0,-100.00,SSW,211,4.0,6.0,25,0.00,,,0.00,meteohub,2013-02-27 14:01:00,
2013-02-27 06:06:00,37.9,5.2,-100.00,SSW,209,4.0,7.0,25,0.00,,,0.00,meteohub,2013-02-27 14:06:00,
2013-02-27 06:11:00,37.9,5.2,-100.00,SSW,209,2.0,7.0,25,0.00,,,0.00,meteohub,2013-02-27 14:11:00,
2013-02-27 06:16:00,37.9,5.2,-100.00,SSW,209,4.0,5.0,25,0.00,,,0.00,meteohub,2013-02-27 14:16:00,
2013-02-27 06:21:00,37.9,5.2,-100.00,SSW,209,5.0,5.0,25,0.00,,,0.00,meteohub,2013-02-27 14:21:00,
2013-02-27 06:26:00,38.1,6.3,-100.00,SSW,208,2.0,6.0,26,0.00,,,0.00,meteohub,2013-02-27 14:26:00,
2013-02-27 06:31:00,38.1,6.3,-100.00,SSW,208,0.0,6.0,26,0.00,,,0.00,meteohub,2013-02-27 14:31:00,
2013-02-27 06:36:00,37.9,6.1,-100.00,SSW,209,1.0,6.0,26,0.00,,,0.00,meteohub,2013-02-27 14:36:00,
2013-02-27 06:41:00,37.8,5.9,-100.00,SSW,209,0.0,3.0,26,0.00,,,0.00,meteohub,2013-02-27 14:41:00,
2013-02-27 06:46:00,37.8,6.8,-100.00,SSW,209,4.0,4.0,27,0.00,,,0.00,meteohub,2013-02-27 14:46:00,
2013-02-27 06:51:00,36.7,5.0,-100.00,NNW,340,6.0,9.0,26,0.00,,,0.00,meteohub,2013-02-27 14:51:00,
2013-02-27 06:56:00,36.0,6.1,-100.00,NNW,334,6.0,9.0,28,0.00,,,0.00,meteohub,2013-02-27 14:56:00,
2013-02-27 07:01:00,35.8,5.9,-100.00,NW,326,4.0,9.0,28,0.00,,,0.00,meteohub,2013-02-27 15:01:00,
2013-02-27 07:06:00,36.0,8.2,-100.00,WNW,301,6.0,8.0,31,0.00,,,0.00,meteohub,2013-02-27 15:06:00,
2013-02-27 07:11:00,36.7,7.3,-100.00,WNW,285,5.0,8.0,29,0.00,,,0.00,meteohub,2013-02-27 15:11:00,
2013-02-27 07:16:00,37.8,9.9,-100.00,WNW,284,5.0,7.0,31,0.00,,,0.00,meteohub,2013-02-27 15:16:00,
2013-02-27 07:21:00,37.8,5.9,-100.00,WNW,284,2.0,7.0,26,0.00,,,0.00,meteohub,2013-02-27 15:21:00,
2013-02-27 07:26:00,37.8,5.9,-100.00,WNW,283,0.0,5.0,26,0.00,,,0.00,meteohub,2013-02-27 15:26:00,
2013-02-27 07:31:00,38.5,5.7,-100.00,WNW,283,3.0,5.0,25,0.00,,,0.00,meteohub,2013-02-27 15:31:00,
2013-02-27 07:36:00,38.8,6.1,-100.00,WNW,283,0.0,4.0,25,0.00,,,0.00,meteohub,2013-02-27 15:36:00,
2013-02-27 07:41:00,39.2,7.2,-100.00,WNW,283,2.0,3.0,26,0.00,,,0.00,meteohub,2013-02-27 15:41:00,
2013-02-27 07:46:00,39.7,5.9,-100.00,WNW,283,2.0,3.0,24,0.00,,,0.00,meteohub,2013-02-27 15:46:00,
2013-02-27 07:51:00,40.3,7.2,-100.00,WSW,256,4.0,4.0,25,0.00,,,0.00,meteohub,2013-02-27 15:51:00,
2013-02-27 07:56:00,40.6,7.5,-100.00,SW,221,4.0,5.0,25,0.00,,,0.00,meteohub,2013-02-27 15:56:00,
2013-02-27 08:01:00,41.2,7.2,-100.00,SW,220,3.0,5.0,24,0.00,,,0.00,meteohub,2013-02-27 16:01:00,
2013-02-27 08:06:00,41.5,7.3,-100.00,SW,220,2.0,5.0,24,0.00,,,0.00,meteohub,2013-02-27 16:06:00,
2013-02-27 08:11:00,41.7,7.5,-100.00,SW,220,2.0,5.0,24,0.00,,,0.00,meteohub,2013-02-27 16:11:00,
2013-02-27 08:16:00,42.3,8.1,-100.00,SW,220,4.0,4.0,24,0.00,,,0.00,meteohub,2013-02-27 16:16:00,
2013-02-27 08:21:00,42.8,7.5,-100.00,SW,220,0.0,4.0,23,0.00,,,0.00,meteohub,2013-02-27 16:21:00,
2013-02-27 08:26:00,43.2,7.9,-100.00,SW,220,2.0,4.0,23,0.00,,,0.00,meteohub,2013-02-27 16:26:00,
2013-02-27 08:31:00,43.5,8.2,-100.00,SW,220,1.0,4.0,23,0.00,,,0.00,meteohub,2013-02-27 16:31:00,
2013-02-27 08:36:00,44.1,9.5,-100.00,SW,220,2.0,4.0,24,0.00,,,0.00,meteohub,2013-02-27 16:36:00,
2013-02-27 08:41:00,44.4,7.9,-100.00,SW,220,0.0,4.0,22,0.00,,,0.00,meteohub,2013-02-27 16:41:00,
2013-02-27 08:46:00,45.1,8.6,-100.00,SW,220,2.0,3.0,22,0.00,,,0.00,meteohub,2013-02-27 16:46:00,
2013-02-27 08:51:00,45.7,7.9,-100.00,SW,220,1.0,5.0,21,0.00,,,0.00,meteohub,2013-02-27 16:51:00,
2013-02-27 08:56:00,46.6,8.8,-100.00,SW,220,0.0,5.0,21,0.00,,,0.00,meteohub,2013-02-27 16:56:00,
2013-02-27 09:01:00,47.5,7.3,-100.00,SW,220,3.0,4.0,19,0.00,,,0.00,meteohub,2013-02-27 17:01:00,
2013-02-27 09:06:00,48.6,7.0,-100.00,SW,220,2.0,3.0,18,0.00,,,0.00,meteohub,2013-02-27 17:06:00,
2013-02-27 09:11:00,48.7,8.2,-100.00,SW,220,0.0,4.0,19,0.00,,,0.00,meteohub,2013-02-27 17:11:00,
2013-02-27 09:16:00,49.5,7.7,-100.00,SW,220,2.0,4.0,18,0.00,,,0.00,meteohub,2013-02-27 17:16:00,
2013-02-27 09:21:00,50.2,8.2,-100.00,SW,220,0.0,4.0,18,0.00,,,0.00,meteohub,2013-02-27 17:21:00,
2013-02-27 09:26:00,50.5,7.3,-100.00,SW,220,0.0,4.0,17,0.00,,,0.00,meteohub,2013-02-27 17:26:00,
2013-02-27 09:31:00,51.1,7.7,-100.00,SW,220,0.0,4.0,17,0.00,,,0.00,meteohub,2013-02-27 17:31:00,
2013-02-27 09:36:00,51.8,8.4,-100.00,SW,220,0.0,2.0,17,0.00,,,0.00,meteohub,2013-02-27 17:36:00,
2013-02-27 09:41:00,52.5,9.0,-100.00,SW,220,1.0,3.0,17,0.00,,,0.00,meteohub,2013-02-27 17:41:00,
2013-02-27 09:46:00,53.1,8.1,-100.00,SSW,200,3.0,3.0,16,0.00,,,0.00,meteohub,2013-02-27 17:46:00,
2013-02-27 09:51:00,53.8,10.0,-100.00,SSW,200,3.0,6.0,17,0.00,,,0.00,meteohub,2013-02-27 17:51:00,
2013-02-27 09:56:00,54.5,9.1,-100.00,SSW,198,0.0,6.0,16,0.00,,,0.00,meteohub,2013-02-27 17:56:00,
2013-02-27 10:01:00,54.9,9.5,-100.00,SSE,153,5.0,6.0,16,0.00,,,0.00,meteohub,2013-02-27 18:01:00,
2013-02-27 10:06:00,55.6,8.6,-100.00,SSE,147,5.0,7.0,15,0.00,,,0.00,meteohub,2013-02-27 18:06:00,
2013-02-27 10:11:00,55.9,9.0,-100.00,SE,138,2.0,7.0,15,0.00,,,0.00,meteohub,2013-02-27 18:11:00,
2013-02-27 10:16:00,56.3,9.1,-100.00,SE,130,3.0,7.0,15,0.00,,,0.00,meteohub,2013-02-27 18:16:00,
2013-02-27 10:21:00,56.5,9.3,-100.00,East,100,6.0,8.0,15,0.00,,,0.00,meteohub,2013-02-27 18:21:00,
2013-02-27 10:26:00,56.5,9.3,-100.00,East,92,6.0,8.0,15,0.00,,,0.00,meteohub,2013-02-27 18:26:00,
2013-02-27 10:31:00,56.7,8.1,-100.00,East,82,5.0,8.0,14,0.00,,,0.00,meteohub,2013-02-27 18:31:00,
2013-02-27 10:36:00,56.7,8.1,-100.00,East,80,5.0,8.0,14,0.00,,,0.00,meteohub,2013-02-27 18:36:00,
2013-02-27 10:41:00,56.8,8.1,-100.00,East,80,3.0,8.0,14,0.00,,,0.00,meteohub,2013-02-27 18:41:00,
2013-02-27 10:46:00,57.0,6.6,-100.00,East,82,6.0,7.0,13,0.00,,,0.00,meteohub,2013-02-27 18:46:00,
2013-02-27 10:51:00,57.4,7.0,-100.00,ENE,78,3.0,7.0,13,0.00,,,0.00,meteohub,2013-02-27 18:51:00,
2013-02-27 10:56:00,57.6,7.0,-100.00,East,98,3.0,7.0,13,0.00,,,0.00,meteohub,2013-02-27 18:56:00,
2013-02-27 11:02:00,57.6,7.0,-100.00,East,98,0.0,10.0,13,0.00,,,0.00,meteohub,2013-02-27 19:02:00,
2013-02-27 11:07:00,57.9,7.3,-100.00,ESE,102,10.0,11.0,13,0.00,,,0.00,meteohub,2013-02-27 19:07:00,
2013-02-27 11:12:00,58.5,7.7,-100.00,ESE,108,5.0,11.0,13,0.00,,,0.00,meteohub,2013-02-27 19:12:00,
2013-02-27 11:17:00,58.6,6.1,-100.00,ESE,112,4.0,11.0,12,0.00,,,0.00,meteohub,2013-02-27 19:17:00,
2013-02-27 11:22:00,58.8,8.1,-100.00,SE,135,8.0,11.0,13,0.00,,,0.00,meteohub,2013-02-27 19:22:00,
2013-02-27 11:27:00,59.2,6.6,-100.00,East,88,11.0,13.0,12,0.00,,,0.00,meteohub,2013-02-27 19:27:00,
2013-02-27 11:32:00,58.5,6.1,-100.00,East,93,10.0,14.0,12,0.00,,,0.00,meteohub,2013-02-27 19:32:00,
2013-02-27 11:37:00,58.5,7.7,-100.00,East,96,8.0,14.0,13,0.00,,,0.00,meteohub,2013-02-27 19:37:00,
2013-02-27 11:42:00,58.8,8.1,-100.00,SE,132,8.0,14.0,13,0.00,,,0.00,meteohub,2013-02-27 19:42:00,
2013-02-27 11:47:00,59.4,6.8,-100.00,SE,140,6.0,13.0,12,0.00,,,0.00,meteohub,2013-02-27 19:47:00,
2013-02-27 11:52:00,59.5,6.8,-100.00,ESE,109,10.0,13.0,12,0.00,,,0.00,meteohub,2013-02-27 19:52:00,
2013-02-27 11:57:00,59.5,6.8,-100.00,East,80,8.0,14.0,12,0.00,,,0.00,meteohub,2013-02-27 19:57:00,
2013-02-27 12:02:00,59.5,6.8,-100.00,East,100,7.0,14.0,12,0.00,,,0.00,meteohub,2013-02-27 20:02:00,
2013-02-27 12:07:00,59.5,6.8,-100.00,SE,140,6.0,14.0,12,0.00,,,0.00,meteohub,2013-02-27 20:07:00,
2013-02-27 12:12:00,59.9,9.0,-100.00,SE,144,1.0,13.0,13,0.00,,,0.00,meteohub,2013-02-27 20:12:00,
2013-02-27 12:17:00,60.1,7.3,-100.00,East,83,3.0,11.0,12,0.00,,,0.00,meteohub,2013-02-27 20:17:00,
2013-02-27 12:22:00,60.1,7.3,-100.00,NE,52,4.0,11.0,12,0.00,,,0.00,meteohub,2013-02-27 20:22:00,
2013-02-27 12:27:00,60.1,7.3,-100.00,NE,48,5.0,11.0,12,0.00,,,0.00,meteohub,2013-02-27 20:27:00,
2013-02-27 12:32:00,60.3,5.5,-100.00,ENE,68,5.0,10.0,11,0.00,,,0.00,meteohub,2013-02-27 20:32:00,
2013-02-27 12:37:00,60.4,7.5,-100.00,SE,125,2.0,10.0,12,0.00,,,0.00,meteohub,2013-02-27 20:37:00,
2013-02-27 12:42:00,60.6,7.7,-100.00,ENE,74,8.0,11.0,12,0.00,,,0.00,meteohub,2013-02-27 20:42:00,
2013-02-27 12:47:00,60.4,5.7,-100.00,NE,51,5.0,13.0,11,0.00,,,0.00,meteohub,2013-02-27 20:47:00,
2013-02-27 12:52:00,60.4,5.7,-100.00,ESE,111,4.0,15.0,11,0.00,,,0.00,meteohub,2013-02-27 20:52:00,
2013-02-27 12:57:00,60.6,7.7,-100.00,ESE,123,3.0,15.0,12,0.00,,,0.00,meteohub,2013-02-27 20:57:00,
2013-02-27 13:02:00,61.0,6.1,-100.00,East,87,10.0,12.0,11,0.00,,,0.00,meteohub,2013-02-27 21:02:00,
2013-02-27 13:07:00,61.3,6.3,-100.00,ESE,108,1.0,12.0,11,0.00,,,0.00,meteohub,2013-02-27 21:07:00,
2013-02-27 13:12:00,61.2,6.3,-100.00,ESE,107,7.0,11.0,11,0.00,,,0.00,meteohub,2013-02-27 21:12:00,
2013-02-27 13:17:00,61.3,6.3,-100.00,East,80,3.0,11.0,11,0.00,,,0.00,meteohub,2013-02-27 21:17:00,
2013-02-27 13:22:00,61.3,6.3,-100.00,East,96,3.0,9.0,11,0.00,,,0.00,meteohub,2013-02-27 21:22:00,
2013-02-27 13:27:00,61.5,6.4,-100.00,East,101,1.0,9.0,11,0.00,,,0.00,meteohub,2013-02-27 21:27:00,
2013-02-27 13:32:00,61.7,6.6,-100.00,SE,130,9.0,9.0,11,0.00,,,0.00,meteohub,2013-02-27 21:32:00,
2013-02-27 13:37:00,61.9,6.8,-100.00,SE,135,3.0,11.0,11,0.00,,,0.00,meteohub,2013-02-27 21:37:00,
2013-02-27 13:42:00,62.2,7.0,-100.00,ESE,113,4.0,11.0,11,0.00,,,0.00,meteohub,2013-02-27 21:42:00,
2013-02-27 13:47:00,62.4,5.2,-100.00,East,80,7.0,11.0,10,0.00,,,0.00,meteohub,2013-02-27 21:47:00,
2013-02-27 13:52:00,62.8,5.4,-100.00,ESE,103,9.0,11.0,10,0.00,,,0.00,meteohub,2013-02-27 21:52:00,
2013-02-27 13:57:00,62.4,5.2,-100.00,ESE,121,3.0,12.0,10,0.00,,,0.00,meteohub,2013-02-27 21:57:00,
2013-02-27 14:02:00,62.8,5.4,-100.00,ESE,111,8.0,12.0,10,0.00,,,0.00,meteohub,2013-02-27 22:02:00,
2013-02-27 14:07:00,63.0,5.5,-100.00,East,87,7.0,12.0,10,0.00,,,0.00,meteohub,2013-02-27 22:07:00,
2013-02-27 14:12:00,63.0,5.5,-100.00,ESE,114,10.0,12.0,10,0.00,,,0.00,meteohub,2013-02-27 22:12:00,
2013-02-27 14:17:00,63.0,3.2,-100.00,ESE,119,5.0,13.0,9,0.00,,,0.00,meteohub,2013-02-27 22:17:00,
2013-02-27 14:22:00,63.1,5.7,-100.00,ESE,111,5.0,13.0,10,0.00,,,0.00,meteohub,2013-02-27 22:22:00,
2013-02-27 14:27:00,63.1,3.4,-100.00,SE,146,6.0,13.0,9,0.00,,,0.00,meteohub,2013-02-27 22:27:00,
2013-02-27 14:32:00,63.3,3.6,-100.00,ESE,119,9.0,12.0,9,0.00,,,0.00,meteohub,2013-02-27 22:32:00,
2013-02-27 14:37:00,63.3,3.6,-100.00,East,83,9.0,12.0,9,0.00,,,0.00,meteohub,2013-02-27 22:37:00,
2013-02-27 14:42:00,63.7,3.7,-100.00,East,98,3.0,12.0,9,0.00,,,0.00,meteohub,2013-02-27 22:42:00,
2013-02-27 14:47:00,63.7,3.7,-100.00,ESE,113,7.0,11.0,9,0.00,,,0.00,meteohub,2013-02-27 22:47:00,
2013-02-27 14:52:00,63.3,3.6,-100.00,East,98,8.0,11.0,9,0.00,,,0.00,meteohub,2013-02-27 22:52:00,
2013-02-27 14:57:00,63.5,3.6,-100.00,ESE,121,0.0,10.0,9,0.00,,,0.00,meteohub,2013-02-27 22:57:00,
2013-02-27 15:02:00,63.7,3.7,-100.00,SSE,149,7.0,14.0,9,0.00,,,0.00,meteohub,2013-02-27 23:02:00,
2013-02-27 15:07:00,63.9,3.9,-100.00,ESE,108,11.0,14.0,9,0.00,,,0.00,meteohub,2013-02-27 23:07:00,
2013-02-27 15:12:00,63.7,3.7,-100.00,ESE,119,3.0,14.0,9,0.00,,,0.00,meteohub,2013-02-27 23:12:00,
2013-02-27 15:17:00,64.0,4.1,-100.00,ESE,121,8.0,13.0,9,0.00,,,0.00,meteohub,2013-02-27 23:17:00,
2013-02-27 15:22:00,64.0,4.1,-100.00,ESE,117,4.0,13.0,9,0.00,,,0.00,meteohub,2013-02-27 23:22:00,
2013-02-27 15:27:00,64.2,1.6,-100.00,East,95,8.0,12.0,8,0.00,,,0.00,meteohub,2013-02-27 23:27:00,
2013-02-27 15:32:00,64.0,4.1,-100.00,ESE,105,7.0,12.0,9,0.00,,,0.00,meteohub,2013-02-27 23:32:00,
2013-02-27 15:37:00,63.9,1.4,-100.00,East,86,3.0,10.0,8,0.00,,,0.00,meteohub,2013-02-27 23:37:00,
2013-02-27 15:42:00,63.9,3.9,-100.00,SE,141,4.0,11.0,9,0.00,,,0.00,meteohub,2013-02-27 23:42:00,
2013-02-27 15:47:00,64.0,4.1,-100.00,SSE,161,7.0,11.0,9,0.00,,,0.00,meteohub,2013-02-27 23:47:00,
2013-02-27 15:52:00,64.2,4.1,-100.00,ESE,113,7.0,11.0,9,0.00,,,0.00,meteohub,2013-02-27 23:52:00,
2013-02-27 15:57:00,64.0,1.6,-100.00,SSE,149,2.0,11.0,8,0.00,,,0.00,meteohub,2013-02-27 23:57:00,
2013-02-27 16:02:00,64.0,4.1,-100.00,SE,129,4.0,11.0,9,0.00,,,0.00,meteohub,2013-02-28 00:02:00,
2013-02-27 16:07:00,64.0,1.6,-100.00,SE,131,2.0,10.0,8,0.00,,,0.00,meteohub,2013-02-28 00:07:00,
2013-02-27 16:12:00,64.0,1.6,-100.00,SE,143,9.0,9.0,8,0.00,,,0.00,meteohub,2013-02-28 00:12:00,
2013-02-27 16:17:00,63.9,1.4,-100.00,SE,129,3.0,11.0,8,0.00,,,0.00,meteohub,2013-02-28 00:17:00,
2013-02-27 16:22:00,63.9,1.4,-100.00,ESE,114,3.0,11.0,8,0.00,,,0.00,meteohub,2013-02-28 00:22:00,
2013-02-27 16:27:00,63.9,1.4,-100.00,East,101,3.0,11.0,8,0.00,,,0.00,meteohub,2013-02-28 00:27:00,
2013-02-27 16:32:00,63.7,1.2,-100.00,SE,128,6.0,10.0,8,0.00,,,0.00,meteohub,2013-02-28 00:32:00,
2013-02-27 16:37:00,63.3,3.6,-100.00,ESE,117,9.0,10.0,9,0.00,,,0.00,meteohub,2013-02-28 00:37:00,
2013-02-27 16:42:00,63.3,1.0,-100.00,ESE,105,4.0,10.0,8,0.00,,,0.00,meteohub,2013-02-28 00:42:00,
2013-02-27 16:47:00,63.1,3.4,-100.00,ESE,107,4.0,10.0,9,0.00,,,0.00,meteohub,2013-02-28 00:47:00,
2013-02-27 16:52:00,63.0,3.2,-100.00,ESE,121,5.0,10.0,9,0.00,,,0.00,meteohub,2013-02-28 00:52:00,
2013-02-27 16:57:00,62.8,0.5,-100.00,East,94,8.0,9.0,8,0.00,,,0.00,meteohub,2013-02-28 00:57:00,
2013-02-27 17:02:00,62.4,0.3,-100.00,East,98,7.0,10.0,8,0.00,,,0.00,meteohub,2013-02-28 01:02:00,
2013-02-27 17:07:00,62.4,2.8,-100.00,ESE,112,4.0,10.0,9,0.00,,,0.00,meteohub,2013-02-28 01:07:00,
2013-02-27 17:12:00,62.2,2.7,-100.00,East,95,8.0,10.0,9,0.00,,,0.00,meteohub,2013-02-28 01:12:00,
2013-02-27 17:17:00,61.9,2.5,-100.00,East,98,8.0,10.0,9,0.00,,,0.00,meteohub,2013-02-28 01:17:00,
2013-02-27 17:22:00,61.5,2.1,-100.00,East,97,6.0,9.0,9,0.00,,,0.00,meteohub,2013-02-28 01:22:00,
2013-02-27 17:27:00,61.3,1.9,-100.00,ESE,103,7.0,9.0,9,0.00,,,0.00,meteohub,2013-02-28 01:27:00,
2013-02-27 17:32:00,61.3,1.9,-100.00,ESE,104,5.0,9.0,9,0.00,,,0.00,meteohub,2013-02-28 01:32:00,
2013-02-27 17:37:00,61.2,1.9,-100.00,ESE,104,4.0,9.0,9,0.00,,,0.00,meteohub,2013-02-28 01:37:00,
2013-02-27 17:42:00,61.2,1.9,-100.00,ESE,109,5.0,9.0,9,0.00,,,0.00,meteohub,2013-02-28 01:42:00,
2013-02-27 17:47:00,61.0,3.9,-100.00,ESE,109,2.0,8.0,10,0.00,,,0.00,meteohub,2013-02-28 01:47:00,
2013-02-27 17:52:00,60.8,3.9,-100.00,ESE,111,4.0,8.0,10,0.00,,,0.00,meteohub,2013-02-28 01:52:00,
2013-02-27 17:57:00,60.6,1.4,-100.00,ESE,112,3.0,8.0,9,0.00,,,0.00,meteohub,2013-02-28 01:57:00,
2013-02-27 18:02:00,60.4,3.6,-100.00,ESE,112,2.0,5.0,10,0.00,,,0.00,meteohub,2013-02-28 02:02:00,
2013-02-27 18:07:00,60.1,3.4,-100.00,SE,125,3.0,5.0,10,0.00,,,0.00,meteohub,2013-02-28 02:07:00,
2013-02-27 18:12:00,59.7,3.0,-100.00,SE,125,2.0,5.0,10,0.00,,,0.00,meteohub,2013-02-28 02:12:00,
2013-02-27 18:17:00,59.5,2.8,-100.00,SE,125,2.0,4.0,10,0.00,,,0.00,meteohub,2013-02-28 02:17:00,
2013-02-27 18:22:00,59.4,2.7,-100.00,SE,125,3.0,4.0,10,0.00,,,0.00,meteohub,2013-02-28 02:22:00,
2013-02-27 18:27:00,58.6,2.1,-100.00,ESE,107,5.0,5.0,10,0.00,,,0.00,meteohub,2013-02-28 02:27:00,
2013-02-27 18:32:00,57.9,3.7,-100.00,East,98,3.0,6.0,11,0.00,,,0.00,meteohub,2013-02-28 02:32:00,
2013-02-27 18:37:00,57.6,3.4,-100.00,ESE,111,4.0,7.0,11,0.00,,,0.00,meteohub,2013-02-28 02:37:00,
2013-02-27 18:42:00,57.0,3.0,-100.00,ESE,111,4.0,7.0,11,0.00,,,0.00,meteohub,2013-02-28 02:42:00,
2013-02-27 18:47:00,56.7,2.7,-100.00,ESE,112,3.0,7.0,11,0.00,,,0.00,meteohub,2013-02-28 02:47:00,
2013-02-27 18:52:00,56.3,4.3,-100.00,ESE,116,2.0,7.0,12,0.00,,,0.00,meteohub,2013-02-28 02:52:00,
2013-02-27 18:57:00,55.9,4.1,-100.00,ESE,116,1.0,7.0,12,0.00,,,0.00,meteohub,2013-02-28 02:57:00,
2013-02-27 19:02:00,55.8,1.9,-100.00,ESE,116,2.0,7.0,11,0.00,,,0.00,meteohub,2013-02-28 03:02:00,
2013-02-27 19:07:00,55.4,1.8,-100.00,ESE,119,3.0,4.0,11,0.00,,,0.00,meteohub,2013-02-28 03:07:00,
2013-02-27 19:12:00,54.9,3.2,-100.00,SE,135,3.0,5.0,12,0.00,,,0.00,meteohub,2013-02-28 03:12:00,
2013-02-27 19:17:00,54.7,3.0,-100.00,SE,140,1.0,5.0,12,0.00,,,0.00,meteohub,2013-02-28 03:17:00,
2013-02-27 19:22:00,54.3,4.5,-100.00,SE,140,4.0,5.0,13,0.00,,,0.00,meteohub,2013-02-28 03:22:00,
2013-02-27 19:27:00,54.1,4.3,-100.00,South,170,5.0,5.0,13,0.00,,,0.00,meteohub,2013-02-28 03:27:00,
2013-02-27 19:32:00,54.1,4.3,-100.00,South,188,5.0,6.0,13,0.00,,,0.00,meteohub,2013-02-28 03:32:00,
2013-02-27 19:37:00,54.0,4.3,-100.00,South,189,4.0,6.0,13,0.00,,,0.00,meteohub,2013-02-28 03:37:00,
2013-02-27 19:42:00,54.0,5.9,-100.00,South,191,4.0,6.0,14,0.00,,,0.00,meteohub,2013-02-28 03:42:00,
2013-02-27 19:47:00,54.0,5.9,-100.00,South,191,2.0,6.0,14,0.00,,,0.00,meteohub,2013-02-28 03:47:00,
2013-02-27 19:52:00,54.0,4.3,-100.00,SSW,194,3.0,5.0,13,0.00,,,0.00,meteohub,2013-02-28 03:52:00,
2013-02-27 19:57:00,53.6,3.9,-100.00,SSW,200,4.0,5.0,13,0.00,,,0.00,meteohub,2013-02-28 03:57:00,
2013-02-27 20:02:00,52.7,3.2,-100.00,SW,219,5.0,5.0,13,0.00,,,0.00,meteohub,2013-02-28 04:02:00,
2013-02-27 20:07:00,52.0,2.7,-100.00,WSW,240,6.0,6.0,13,0.00,,,0.00,meteohub,2013-02-28 04:07:00,
2013-02-27 20:12:00,51.4,3.7,-100.00,WSW,254,7.0,9.0,14,0.00,,,0.00,meteohub,2013-02-28 04:12:00,
2013-02-27 20:17:00,51.4,3.7,-100.00,WSW,254,7.0,9.0,14,0.00,,,0.00,meteohub,2013-02-28 04:17:00,
2013-02-27 20:22:00,51.4,3.7,-100.00,WSW,254,6.0,9.0,14,0.00,,,0.00,meteohub,2013-02-28 04:22:00,
2013-02-27 20:27:00,51.6,3.9,-100.00,WSW,254,4.0,9.0,14,0.00,,,0.00,meteohub,2013-02-28 04:27:00,
2013-02-27 20:32:00,51.6,3.9,-100.00,WSW,254,5.0,7.0,14,0.00,,,0.00,meteohub,2013-02-28 04:32:00,
2013-02-27 20:37:00,51.6,3.9,-100.00,WSW,254,6.0,6.0,14,0.00,,,0.00,meteohub,2013-02-28 04:37:00,
2013-02-27 20:42:00,51.4,3.7,-100.00,WSW,253,4.0,7.0,14,0.00,,,0.00,meteohub,2013-02-28 04:42:00,
2013-02-27 20:47:00,51.4,3.7,-100.00,WSW,254,4.0,7.0,14,0.00,,,0.00,meteohub,2013-02-28 04:47:00,
2013-02-27 20:52:00,51.1,3.6,-100.00,WSW,254,2.0,7.0,14,0.00,,,0.00,meteohub,2013-02-28 04:52:00,
2013-02-27 20:57:00,50.9,3.4,-100.00,WSW,254,3.0,6.0,14,0.00,,,0.00,meteohub,2013-02-28 04:57:00,
2013-02-27 21:00:00,50.7,3.2,-100.00,WSW,254,3.0,6.0,14,0.00,,,0.00,meteohub,2013-02-28 05:00:00,
2013-02-27 21:05:00,50.7,4.6,-100.00,WSW,254,4.0,4.0,15,0.00,,,0.00,meteohub,2013-02-28 05:05:00,
2013-02-27 21:10:00,51.1,5.0,-100.00,WSW,254,5.0,5.0,15,0.00,,,0.00,meteohub,2013-02-28 05:10:00,
2013-02-27 21:15:00,51.1,3.6,-100.00,WSW,254,4.0,6.0,14,0.00,,,0.00,meteohub,2013-02-28 05:15:00,
2013-02-27 21:20:00,51.1,3.6,-100.00,WSW,253,4.0,6.0,14,0.00,,,0.00,meteohub,2013-02-28 05:20:00,
2013-02-27 21:25:00,50.9,4.8,-100.00,WSW,254,3.0,6.0,15,0.00,,,0.00,meteohub,2013-02-28 05:25:00,
2013-02-27 21:31:00,50.7,3.2,-100.00,WSW,254,0.0,4.0,14,0.00,,,0.00,meteohub,2013-02-28 05:31:00,
2013-02-27 21:36:00,50.7,4.6,-100.00,WSW,254,0.0,4.0,15,0.00,,,0.00,meteohub,2013-02-28 05:36:00,
2013-02-27 21:41:00,50.5,4.6,-100.00,WSW,254,1.0,4.0,15,0.00,,,0.00,meteohub,2013-02-28 05:41:00,
2013-02-27 21:46:00,50.4,4.5,-100.00,WSW,254,0.0,2.0,15,0.00,,,0.00,meteohub,2013-02-28 05:46:00,
2013-02-27 21:51:00,50.0,5.5,-100.00,WSW,254,0.0,2.0,16,0.00,,,0.00,meteohub,2013-02-28 05:51:00,
2013-02-27 21:56:00,49.6,3.9,-100.00,WSW,254,0.0,1.0,15,0.00,,,0.00,meteohub,2013-02-28 05:56:00,
2013-02-27 22:01:00,49.3,3.6,-100.00,WSW,254,0.0,2.0,15,0.00,,,0.00,meteohub,2013-02-28 06:01:00,
2013-02-27 22:06:00,48.9,3.2,-100.00,WSW,254,0.0,2.0,15,0.00,,,0.00,meteohub,2013-02-28 06:06:00,
2013-02-27 22:11:00,48.7,3.2,-100.00,WSW,254,2.0,3.0,15,0.00,,,0.00,meteohub,2013-02-28 06:11:00,
2013-02-27 22:16:00,48.7,5.9,-100.00,WSW,254,0.0,3.0,17,0.00,,,0.00,meteohub,2013-02-28 06:16:00,
2013-02-27 22:21:00,48.6,5.7,-100.00,WSW,254,0.0,3.0,17,0.00,,,0.00,meteohub,2013-02-28 06:21:00,
2013-02-27 22:26:00,48.4,6.8,-100.00,WSW,254,3.0,3.0,18,0.00,,,0.00,meteohub,2013-02-28 06:26:00,
2013-02-27 22:31:00,47.7,6.3,-100.00,WSW,253,3.0,5.0,18,0.00,,,0.00,meteohub,2013-02-28 06:31:00,
2013-02-27 22:36:00,47.5,4.8,-100.00,WSW,254,1.0,5.0,17,0.00,,,0.00,meteohub,2013-02-28 06:36:00,
2013-02-27 22:41:00,46.9,4.5,-100.00,WSW,254,0.0,5.0,17,0.00,,,0.00,meteohub,2013-02-28 06:41:00,
2013-02-27 22:46:00,46.8,5.5,-100.00,WSW,254,2.0,4.0,18,0.00,,,0.00,meteohub,2013-02-28 06:46:00,
2013-02-27 22:51:00,46.2,3.7,-100.00,WSW,254,1.0,3.0,17,0.00,,,0.00,meteohub,2013-02-28 06:51:00,
2013-02-27 22:56:00,46.0,2.3,-100.00,WSW,254,0.0,3.0,16,0.00,,,0.00,meteohub,2013-02-28 06:56:00,
2013-02-27 23:01:00,46.0,3.6,-100.00,WSW,254,0.0,3.0,17,0.00,,,0.00,meteohub,2013-02-28 07:01:00,
2013-02-27 23:06:00,45.9,3.6,-100.00,WSW,254,1.0,3.0,17,0.00,,,0.00,meteohub,2013-02-28 07:06:00,
2013-02-27 23:11:00,45.5,1.9,-100.00,WSW,254,1.0,2.0,16,0.00,,,0.00,meteohub,2013-02-28 07:11:00,
2013-02-27 23:16:00,45.3,1.8,-100.00,WSW,254,0.0,2.0,16,0.00,,,0.00,meteohub,2013-02-28 07:16:00,
2013-02-27 23:21:00,45.3,3.0,-100.00,WSW,254,0.0,2.0,17,0.00,,,0.00,meteohub,2013-02-28 07:21:00,
2013-02-27 23:26:00,45.3,5.5,-100.00,WSW,253,1.0,2.0,19,0.00,,,0.00,meteohub,2013-02-28 07:26:00,
2013-02-27 23:31:00,45.1,5.4,-100.00,SW,227,3.0,6.0,19,0.00,,,0.00,meteohub,2013-02-28 07:31:00,
2013-02-27 23:36:00,45.1,6.4,-100.00,SW,221,6.0,6.0,20,0.00,,,0.00,meteohub,2013-02-28 07:36:00,
2013-02-27 23:41:00,45.0,5.2,-100.00,SW,221,3.0,6.0,19,0.00,,,0.00,meteohub,2013-02-28 07:41:00,
2013-02-27 23:46:00,45.0,3.9,-100.00,SW,221,3.0,6.0,18,0.00,,,0.00,meteohub,2013-02-28 07:46:00,
2013-02-27 23:51:00,45.3,4.3,-100.00,SW,221,3.0,6.0,18,0.00,,,0.00,meteohub,2013-02-28 07:51:00,
2013-02-27 23:56:00,45.5,5.5,-100.00,SW,221,4.0,5.0,19,0.00,,,0.00,meteohub,2013-02-28 07:56:00,